Weather History for Tampa Macdill AFB, FL

Change the Weather History Date:

Sunday, December 16, 2012

  Actual Average Record
Temperature  
Mean Temperature 68 °F -  
Max Temperature 80 °F 69 °F 86 °F (2001)
Min Temperature 57 °F 51 °F 33 °F (2010)
Cooling Degree Days 4    
Growing Degree Days 18 (Base 50)    
Moisture  
Dew Point 62 °F    
Average Humidity 94    
Maximum Humidity 100    
Minimum Humidity 58    
Precipitation  
Precipitation 0.00 in - - ()
Sea Level Pressure  
Sea Level Pressure 30.04 in    
Wind  
Wind Speed 3 mph (SSE)    
Max Wind Speed 7 mph    
Max Gust Speed -    
Visibility 6 miles    
Events Fog    
Averages and records for this station are not official NWS values.
T = Trace of Precipitation, MM = Missing Value Source: NWS Daily Summary

Daily Weather History Graph

Daily Weather History Graph

Search for Another Location

Airport:

Trip Planner

Search our weather history database for the weather conditions in past years. The results will help you decide how hot, cold, wet, or windy it might be!

Date:

Astronomy

Dec. 16, 2012 Rise Set
Actual Time 7:14 AM EST 5:37 PM EST
Civil Twilight 6:48 AM EST 6:03 PM EST
Nautical Twilight 6:19 AM EST 6:32 PM EST
Astronomical Twilight 5:50 AM EST 7:01 PM EST
Moon 10:01 AM EST (12/16) 9:33 PM EST (12/16)
Length of Visible Light 11h 14m
Length of Day
10h 23m
Waxing Crescent, 16% of the Moon is Illuminated
Dec 16
Waxing Crescent
Dec 20
First Quarter
Dec 28
Full
Jan 4
Last Quarter
Jan 11
New

Hourly Weather History & Observations

Time (EST) Temp. Heat Index Dew Point Humidity Pressure Visibility Wind Dir Wind Speed Gust Speed Precip Events Conditions
12:55 AM 61.2 °F - 60.1 °F 96% 30.07 in 10.0 mi East 4.6 mph - N/A   Clear
1:55 AM 60.6 °F - 60.6 °F 100% 30.05 in 10.0 mi ESE 6.9 mph - N/A   Clear
2:55 AM 61.5 °F - 61.5 °F 100% 30.04 in 10.0 mi SE 4.6 mph - N/A   Clear
3:55 AM 60.3 °F - 60.3 °F 100% 30.05 in 10.0 mi East 4.6 mph - N/A   Clear
4:55 AM 59.2 °F - 59.2 °F 100% 30.03 in 10.0 mi East 3.5 mph - N/A   Clear
5:55 AM 57.6 °F - 57.6 °F 100% 30.04 in 10.0 mi East 4.6 mph - N/A   Clear
6:55 AM 58.8 °F - 58.8 °F 100% 30.04 in 10.0 mi Calm Calm - N/A   Clear
7:28 AM 59.0 °F - 59.0 °F 100% 30.06 in 1.8 mi Calm Calm - N/A   Clear
7:29 AM 59.0 °F - 59.0 °F 100% 30.06 in 1.0 mi Calm Calm - N/A   Clear
7:30 AM 59.0 °F - 59.0 °F 100% 30.06 in 0.8 mi Calm Calm - N/A   Clear
7:31 AM 59.0 °F - 59.0 °F 100% 30.06 in 0.5 mi Calm Calm - N/A Fog Fog
7:35 AM 59.0 °F - 59.0 °F 100% 30.06 in 0.2 mi Calm Calm - N/A Fog Fog
7:36 AM 59.0 °F - 59.0 °F 100% 30.06 in 0.2 mi Calm Calm - N/A Fog Fog
7:37 AM 59.0 °F - 59.0 °F 100% 30.06 in 0.2 mi Calm Calm - N/A Fog Fog
7:38 AM 59.0 °F - 59.0 °F 100% 30.06 in 0.5 mi Calm Calm - N/A Fog Fog
7:41 AM 59.0 °F - 59.0 °F 100% 30.06 in 0.8 mi Calm Calm - N/A   Clear
7:43 AM 59.0 °F - 59.0 °F 100% 30.06 in 1.2 mi Calm Calm - N/A   Clear
7:44 AM 59.0 °F - 59.0 °F 100% 30.07 in 1.8 mi Calm Calm - N/A   Clear
7:45 AM 59.0 °F - 59.0 °F 100% 30.06 in 2.5 mi Calm Calm - N/A   Clear
7:46 AM 59.0 °F - 59.0 °F 100% 30.06 in 3.0 mi Calm Calm - N/A   Clear
7:48 AM 59.0 °F - 59.0 °F 100% 30.06 in 2.5 mi Calm Calm - N/A   Clear
7:51 AM 59.0 °F - 59.0 °F 100% 30.06 in 3.0 mi Calm Calm - N/A   Clear
7:55 AM 59.5 °F - 59.5 °F 100% 30.06 in 4.0 mi Calm Calm - N/A   Clear
8:55 AM 67.1 °F - 67.1 °F 100% 30.06 in 10.0 mi SSE 6.9 mph - N/A   Clear
9:55 AM 71.2 °F - 67.6 °F 88% 30.07 in 10.0 mi SSE 5.8 mph - N/A   Clear
10:55 AM 75.7 °F - 68.0 °F 77% 30.06 in 10.0 mi South 3.5 mph - N/A   Clear
11:55 AM 78.4 °F - 67.1 °F 68% 30.04 in 10.0 mi SSW 3.5 mph - N/A   Clear
12:55 PM 79.7 °F - 68.0 °F 67% 30.01 in 10.0 mi Calm Calm - N/A   Clear
1:55 PM 78.8 °F - 65.1 °F 63% 29.99 in 10.0 mi WNW 4.6 mph - N/A   Clear
2:55 PM 80.4 °F 82.1 °F 64.2 °F 58% 29.98 in 10.0 mi WNW 4.6 mph - N/A   Clear
3:55 PM 77.7 °F - 68.9 °F 74% 29.98 in 10.0 mi WSW 4.6 mph - N/A   Clear
4:55 PM 72.5 °F - 67.5 °F 84% 29.98 in 10.0 mi WSW 4.6 mph - N/A   Clear
5:55 PM 69.4 °F - 66.4 °F 90% 29.98 in 10.0 mi West 4.6 mph - N/A   Clear
6:55 PM 67.6 °F - 66.0 °F 95% 29.97 in 10.0 mi Calm Calm - N/A   Clear
7:55 PM 64.2 °F - 63.7 °F 98% 29.97 in 10.0 mi Calm Calm - N/A   Clear
8:55 PM 62.8 °F - 62.2 °F 98% 29.99 in 10.0 mi Calm Calm - N/A   Clear
9:55 PM 62.4 °F - 62.2 °F 99% 29.99 in 10.0 mi Calm Calm - N/A   Clear
10:55 PM 61.5 °F - 61.0 °F 98% 30.01 in 10.0 mi Calm Calm - N/A   Scattered Clouds
11:55 PM 61.7 °F - 61.2 °F 98% 30.00 in 10.0 mi Calm Calm - N/A   Clear